Regional Weather Roundup
Issued by NWS

Home | Current Version | Previous Version | Graphics & Text | Print | Product List | Glossary On
Versions: 1 2 3 4 5 6 7 8 9 10 11 12 13 14 15 16 17 18 19 20 21 22 23 24 25 26 27 28 29 30 31 32 33 34 35 36 37 38 39 40 41 42 43 44 45 46 47 48 49 50
018
ASUS43 KIND 180159
RWRIN

WEATHER ROUNDUP FOR INDIANA
NATIONAL WEATHER SERVICE INDIANAPOLIS IN
900 PM EST SUN DEC 17 2017

NOTE: "FAIR" INDICATES FEW OR NO CLOUDS BELOW 12,000 FEET WITH NO
SIGNIFICANT WEATHER AND/OR OBSTRUCTIONS TO VISIBILITY.

* - STATION DOES NOT REPORT WEATHER SUCH AS PRECIPITATION OR FOG.

+ - STATION NOT QUALITY CONTROLLED BY THE NATIONAL WEATHER SERVICE.
    USE DATA WITH CAUTION...ESPECIALLY DEWPOINT AND RELATIVE
    HUMIDITY OBSERVATIONS.

INZ001>003-010>013-019-020-180300-
NORTHWEST INDIANA

CITY           SKY/WX    TMP DP  RH WIND       PRES   REMARKS
GARY /AIRPORT/ CLOUDY    45  36  70 SW5       30.02S
KNOX *+        CLOUDY    41  36  81 S10       30.03R
MONTICELLO +   CLOUDY    40  37  86 S8        30.05S WCI  35

$$

LMZ046-743>745-180300-
SOUTHERN LAKE MICHIGAN

STATION/POSITION TIME  TEMP    WIND        PRES    WAVE
                       AIR SEA DIR/SP/G            HT
                 (UTC) (F)     (DEG/KT/KT) (MB)    (FT)
BURNS HARBOR     0140   43     190/ 12/ 14 1016.6S
MICHIGAN CITY    0130   42     170/ 15/ 20   N/A

$$

INZ004-005-014>016-021>024-180300-
NORTH CENTRAL INDIANA

CITY           SKY/WX    TMP DP  RH WIND       PRES   REMARKS
GOSHEN         CLOUDY    39  34  82 S8        30.03R WCI  33
PERU/GRISSOM   CLOUDY    40  40 100 S7        30.05S WCI  35
SOUTH BEND     CLOUDY    37  35  92 SW8       30.02S WCI  31
WARSAW +       CLOUDY    39  36  87 S3        30.05R

$$

INZ006>009-017-018-025>027-180300-
NORTHEAST INDIANA

CITY           SKY/WX    TMP DP  RH WIND       PRES   REMARKS
AUBURN +       CLOUDY    37  34  87 S6        30.05S WCI  33
FORT WAYNE     CLOUDY    38  36  92 SW9       30.07R WCI  31
KENDALLVILLE + CLOUDY    37  35  90 SW8       30.03F WCI  31

$$

INZ028-029-035-036-043>045-051>053-180300-
WEST CENTRAL INDIANA

CITY           SKY/WX    TMP DP  RH WIND       PRES   REMARKS
LAFAYETTE      CLOUDY    41  38  89 S3        30.07R
TERRE HAUTE    CLOUDY    44  38  79 S10       30.10S

$$

INZ030>032-037>040-046>048-054>057-064-065-180300-
CENTRAL INDIANA

CITY           SKY/WX    TMP DP  RH WIND       PRES   REMARKS
COLUMBUS       CLOUDY    41  32  70 S8        30.12S
INDIANAPOLIS   MOCLDY    38  34  85 S7        30.09R WCI  33
-EAGLE CREEK   MOCLDY    39  34  82 CALM      30.08R
KOKOMO +       CLOUDY    38  36  92 S7        30.08R WCI  33
MT COMFORT *+  CLOUDY    39  37  93 S7        30.09S WCI  34
SHELBYVILLE    MOCLDY    40  32  73 S10       30.10R WCI  33

$$

INZ033-034-041-042-049-050-058-059-180300-
EAST CENTRAL INDIANA

CITY           SKY/WX    TMP DP  RH WIND       PRES   REMARKS
MUNCIE         CLOUDY    41  35  79 S6        30.08S
RICHMOND +     CLOUDY    34  34 100 S7        30.09R WCI  28

$$

INZ060-061-067>069-081>083-085>088-180300-
SOUTHWEST INDIANA

CITY           SKY/WX    TMP DP  RH WIND       PRES   REMARKS
EVANSVILLE     CLOUDY    42  42 100 S5        30.14S FOG
HUNTINGBURG +  CLOUDY    42  40  92 S6        30.14S FOG

$$

INZ062-063-066-070>080-084-089>092-180300-
SOUTH CENTRAL AND SOUTHEAST INDIANA

CITY           SKY/WX    TMP DP  RH WIND       PRES   REMARKS
BLOOMINGTON    CLOUDY    43  36  76 S8        30.10R
SEYMOUR +      CLOUDY    43  36  75 S7        30.13R

$$





USA.gov is the U.S. government's official web portal to all federal, state and local government web resources and services.